EA4LT-13 Weather Reports


time (UTC)temp
C
wind
direction
speed
KPH
gust
KPH
rain 1hr
cm
rain 24hr
cm
rain mn
cm
humidity
%
barometer
mb
20260507031659 11 315 6.4 12.9 0.00 0.00 0.00 74 1007.3
20260507030158 12 292 4.8 9.7 0.00 0.00 0.00 73 1007.4
20260507024658 12 315 4.8 9.7 0.00 0.00 0.00 71 1007.1
20260507023200 12 292 6.4 12.9 0.00 0.00 0.00 71 1007.2
20260507021658 12 315 8.0 12.9 0.00 0.00 0.00 72 1007.2
20260507020158 12 292 6.4 9.7 0.00 0.00 0.00 72 1007.2
20260507014658 12 292 8.0 14.5 0.00 0.00 0.00 72 1007.4
20260507013158 11 315 4.8 12.9 0.00 0.00 0.00 75 1007.3
20260507011658 12 315 9.7 16.1 0.00 0.00 0.00 72 1007.5
20260507010159 12 292 8.0 12.9 0.00 0.00 0.00 72 1007.6
20260507004659 12 315 8.0 14.5 0.00 0.00 0.00 72 1007.8
20260507003158 12 315 9.7 16.1 0.00 0.00 0.00 71 1007.8
20260507001657 12 315 8.0 14.5 0.00 0.00 0.00 72 1007.9
20260507000158 12 315 8.0 14.5 0.00 0.00 0.00 73 1008.1
20260506234657 12 292 9.7 16.1 0.00 0.00 0.00 72 1008.0
20260506233158 12 292 9.7 16.1 0.00 0.00 0.00 73 1007.8
20260506231658 12 315 8.0 16.1 0.00 0.00 0.00 72 1008.0
20260506230157 12 292 9.7 20.9 0.00 0.00 0.00 72 1007.9
20260506224657 12 292 9.7 16.1 0.00 0.00 0.00 72 1008.1
20260506223158 12 292 9.7 17.7 0.00 0.00 0.00 72 1008.2
20260506221657 12 315 12.9 19.3 0.00 0.00 0.00 71 1008.2
20260506220157 13 292 14.5 24.1 0.00 0.00 0.00 70 1008.2
20260506214657 13 292 12.9 24.1 0.00 0.00 0.00 69 1008.0
20260506213157 13 338 9.7 20.9 0.00 0.00 0.00 68 1008.1
20260506211657 13 292 9.7 24.1 0.00 0.00 0.00 67 1008.1
20260506210157 14 315 11.3 20.9 0.00 0.00 0.00 65 1008.1
20260506204658 14 315 12.9 17.7 0.00 0.00 0.00 63 1007.9
20260506203157 15 315 6.4 19.3 0.00 0.00 0.00 60 1008.1
20260506201656 16 315 12.9 19.3 0.00 0.00 0.00 53 1007.6
20260506200157 17 292 8.0 9.7 0.00 0.00 0.00 45 1007.3
20260506194656 17 292 1.6 3.2 0.00 0.00 0.00 43 1007.4
20260506193157 17 292 3.2 6.4 0.00 0.00 0.00 42 1007.3
20260506191656 18 270 3.2 6.4 0.00 0.00 0.00 41 1007.3
20260506190156 18 315 1.6 4.8 0.00 0.00 0.00 40 1007.4
20260506184656 18 315 3.2 4.8 0.00 0.00 0.00 40 1007.4
20260506183157 18 270 3.2 6.4 0.00 0.00 0.00 41 1007.3
20260506181657 18 270 3.2 4.8 0.00 0.00 0.00 40 1007.5
20260506180156 18 270 1.6 6.4 0.00 0.00 0.00 39 1007.6
20260506174655 19 315 1.6 4.8 0.00 0.00 0.00 37 1007.7
20260506173156 19 292 3.2 6.4 0.00 0.00 0.00 38 1007.6
20260506171656 19 315 4.8 14.5 0.00 0.00 0.00 38 1008.0
20260506170156 20 360 3.2 9.7 0.00 0.00 0.00 37 1007.8
20260506164655 20 135 3.2 12.9 0.00 0.00 0.00 37 1007.8
20260506163156 20 158 3.2 6.4 0.00 0.00 0.00 36 1007.7
20260506161655 21 180 4.8 6.4 0.00 0.00 0.00 35 1007.9
20260506160155 19 360 3.2 14.5 0.00 0.00 0.00 38 1008.1
20260506154655 20 338 4.8 14.5 0.00 0.00 0.00 38 1008.1
20260506153156 20 68 1.6 12.9 0.00 0.00 0.00 36 1008.3
20260506151656 20 158 3.2 9.7 0.00 0.00 0.00 35 1008.3
20260506150156 21 360 4.8 14.5 0.00 0.00 0.00 36 1008.5
20260506144655 21 315 4.8 16.1 0.00 0.00 0.00 35 1009.0
20260506143156 20 225 1.6 9.7 0.00 0.00 0.00 38 1009.2
20260506141656 19 270 4.8 6.4 0.00 0.00 0.00 39 1009.4
20260506140156 20 292 4.8 12.9 0.00 0.00 0.00 39 1009.5
20260506134654 19 292 1.6 14.5 0.00 0.00 0.00 41 1009.6
20260506133155 20 270 1.6 12.9 0.00 0.00 0.00 41 1009.7
20260506131655 19 248 1.6 9.7 0.00 0.00 0.00 41 1009.6
20260506130155 18 292 3.2 9.7 0.00 0.00 0.00 42 1010.2
20260506124654 20 315 4.8 12.9 0.00 0.00 0.00 41 1010.3
20260506123155 18 68 0.0 12.9 0.00 0.00 0.00 44 1010.4
20260506121654 18 315 3.2 12.9 0.00 0.00 0.00 45 1010.6
20260506120154 18 90 0.0 9.7 0.00 0.00 0.00 43 1010.8
20260506114656 18 112 0.0 9.7 0.00 0.00 0.00 46 1010.8
20260506113155 18 202 4.8 9.7 0.00 0.00 0.00 45 1011.2
20260506111654 18 68 0.0 9.7 0.00 0.00 0.00 46 1011.3
20260506110155 17 248 4.8 16.1 0.00 0.00 0.00 49 1011.1
20260506104653 17 202 0.0 9.7 0.00 0.00 0.00 49 1011.2
20260506103153 17 90 1.6 9.7 0.00 0.00 0.00 50 1011.2
20260506101655 16 315 1.6 9.7 0.00 0.00 0.00 50 1011.3
20260506100154 16 270 0.0 14.5 0.00 0.00 0.00 56 1011.2
20260506094654 16 315 4.8 9.7 0.00 0.00 0.00 58 1011.3
20260506093153 14 292 6.4 14.5 0.00 0.00 0.00 62 1011.2
20260506091654 15 112 1.6 12.9 0.00 0.00 0.00 64 1011.1
20260506090154 13 292 4.8 12.9 0.00 0.00 0.00 65 1011.3
20260506084654 13 315 6.4 16.1 0.00 0.00 0.00 66 1011.2
20260506083154 13 292 3.2 14.5 0.00 0.00 0.00 69 1011.1
20260506081655 12 338 4.8 14.5 0.00 0.00 0.00 71 1011.2
20260506080154 12 315 6.4 17.7 0.00 0.00 0.00 73 1011.3
20260506073154 11 315 4.8 12.9 0.00 0.00 0.00 73 1011.2
20260506071653 11 315 0.0 9.7 0.00 0.00 0.00 79 1011.3
20260506070152 10 292 4.8 9.7 0.00 0.00 0.00 78 1011.3
20260506061653 8 315 4.8 9.7 0.00 0.00 0.00 83 1011.3
20260506060152 8 315 4.8 6.4 0.00 0.00 0.00 84 1011.2
20260506050153 8 292 4.8 9.7 0.00 0.00 0.00 84 1010.5
20260506044653 8 292 4.8 9.7 0.00 0.00 0.00 84 1010.9
20260506043152 8 315 6.4 9.7 0.00 0.00 0.00 84 1010.9
20260506041653 8 315 4.8 9.7 0.00 0.00 0.00 84 1010.9
20260506040152 8 315 3.2 9.7 0.00 0.00 0.00 83 1010.9
20260506034652 8 315 4.8 9.7 0.00 0.00 0.00 83 1011.2
20260506033153 9 315 4.8 9.7 0.00 0.00 0.00 83 1011.0